This demonstration page uses our WeatherBlox Daily Observations layout. Learn more.

Left ArrowRight Arrow

41.55636, -103.73856

Hourly Observations for December 25, 2020

Temp ( °F °C ) Dew Point ( °F °C ) Humidity (%) Winds ( mph kmh ) Pressure ( in mb ) Visibility ( mi km ) Precip ( " mm )
12:56 am 00:56 Clear 35 1.5 11 -11.9 37 37 W 13 20 30.17 1022 10 16 0.00 0.00
1:56 am 01:56 Clear 34 1.1 11 -11.6 39 39 W 15 24 30.16 1021 10 16 0.00 0.00
2:56 am 02:56 Clear 34 0.9 12 -11.3 40 40 W 14 22 30.15 1021 10 16 0.00 0.00
3:56 am 03:56 Clear 30 -1.3 12 -11.2 47 47 W 14 22 30.16 1021 10 16 0.00 0.00
4:56 am 04:56 Clear 29 -1.7 12 -10.9 50 50 WSW 12 19 30.19 1022 10 16 0.00 0.00
5:56 am 05:56 Clear 28 -2.2 12 -11.2 51 51 SW 12 19 30.19 1022 10 16 0.00 0.00
6:56 am 06:56 Clear 30 -1 12 -11.3 46 46 W 12 19 30.19 1022 10 16 0.00 0.00
7:56 am 07:56 Sunny 31 -0.5 12 -11.2 45 45 W 10 17 30.19 1023 10 16 0.00 0.00
8:56 am 08:56 Sunny 39 4.1 13 -10.7 33 33 W 13 20 30.17 1022 10 16 0.00 0.00
9:56 am 09:56 Sunny 46 7.6 11 -11.4 25 25 WNW 18 30 30.15 1021 10 16 0.00 0.00
10:56 am 10:56 Sunny 50 10 11 -11.8 20 20 WNW 18 30 30.11 1020 10 16 0.00 0.00
11:56 am 11:56 Sunny 54 12 9 -12.7 17 17 NW 20 31 30.08 1019 10 16 0.00 0.00
12:56 pm 12:56 Sunny 55 13 8 -13.2 15 15 NW 15 24 30.04 1017 10 16 0.00 0.00
1:56 pm 13:56 Sunny 55 12.6 9 -12.8 16 16 NW 21 33 30.02 1017 10 16 0.00 0.00
2:56 pm 14:56 Sunny 54 12.3 10 -12.3 17 17 NW 17 28 30.01 1016 10 16 0.00 0.00
3:56 pm 15:56 Sunny 48 8.8 11 -11.8 22 22 NW 8 13 30.05 1018 10 16 0.00 0.00
4:56 pm 16:56 Clear 45 7.4 11 -11.8 24 24 NW 8 13 30.04 1017 10 16 0.00 0.00
5:56 pm 17:56 Clear 41 4.9 11 -11.6 29 29 SW 9 15 30.06 1018 10 16 0.00 0.00
6:56 pm 18:56 Clear 39 4.1 13 -10.5 34 34 WSW 6 9 30.06 1018 10 16 0.00 0.00
7:56 pm 19:56 Clear 37 2.9 15 -9.6 40 40 WSW 9 15 30.06 1018 10 16 0.00 0.00
8:56 pm 20:56 Clear 32 -0.2 16 -9 52 52 WSW 9 15 30.05 1018 10 16 0.00 0.00
9:56 pm 21:56 Clear 34 0.9 14 -10 44 44 SSW 9 15 29.99 1016 10 16 0.00 0.00
10:56 pm 22:56 Clear 33 0.6 13 -10.7 43 43 SSW 8 13 29.95 1014 10 16 0.00 0.00
11:56 pm 23:56 Clear 31 -0.5 13 -10.8 46 46 SW 7 11 29.94 1014 10 16 0.00 0.00

Powered by AerisWeather